[[{"header":{"parameterUnit":"m.s-1","parameterCategory":1,"la1":30.2991,"la2":30.254,"lo1":-89.0895,"lo2":-89.0444,"dy":0.0017,"dx":0.0017,"nx":28,"ny":28,"refTime":"2025-06-05T21:00:00:Z","depth":0,"parameterNumber":2,"parameterNumberName":"U-component_of_WINDS"},"data":[0,0,0,0,0,0,0,0,0,0,0,0,0,0,0,0,0,0,0,0,0,0,0,0,0,0,0,0,0,0,0,0,0,0,0,0,0,0,0,0,0,0,0,0,0,0,0,0,0,0,0,0,0,0,0,0,0,0,1.0581,1.0582,0,1.0717,1.0718,1.072,1.0754,1.0754,1.0753,1.0752,1.0896,1.0901,1.0905,0,0,0,0,0,0,0,0,0,0,0,0,0,1.0356,1.036,1.0581,1.0582,1.0584,1.0717,1.0718,1.072,1.0755,1.0754,1.0753,1.0752,1.0895,1.09,1.0906,0,0,0,0,0,0,0,0,0,0,0,0,0,1.0469,1.0361,1.058,1.0617,1.0622,1.0716,1.0719,1.0721,1.0755,1.0754,1.0752,1.0751,1.0893,1.0899,1.0906,1.0976,0,0,1.0928,1.0931,0,0,0,0,0,0,0,0,1.0462,1.0477,1.061,1.0615,1.062,1.0717,1.0692,1.0806,1.0755,1.0704,1.0752,1.075,1.0838,1.0849,1.0878,1.0982,1.0988,1.0928,1.0933,1.0935,1.0937,0,0,0,0,0,0,0,1.0455,1.0472,1.0635,1.0612,1.0618,1.0628,1.0643,1.0714,1.0777,1.0709,1.0712,1.0727,1.084,1.0871,1.0882,1.0991,1.0928,1.0934,1.0939,1.0941,1.116,1.1162,0,0,0,0,0,0,1.044,1.0465,1.063,1.0639,1.0536,1.0634,1.065,1.0687,1.0776,1.0788,1.0728,1.0728,1.086,1.0873,1.0887,1.0974,1.0935,1.0942,1.0946,1.1159,1.1161,1.1163,0,0,0,0,0,0,1.0435,1.0454,1.0625,1.0553,1.0575,1.0639,1.0681,1.0691,1.0721,1.0791,1.0803,1.0747,1.0859,1.0877,1.0953,1.098,1.0945,1.0951,1.1157,1.1159,1.1162,1.1149,0,0,0,0,0,0,1.0428,1.0452,1.0478,1.0553,1.0579,1.0687,1.0682,1.0694,1.0733,1.0734,1.0812,1.0824,1.086,1.0943,1.096,1.0989,1.0957,1.1155,1.1158,1.1161,1.1147,1.1151,1.1154,0,0,0,0,0,1.042,1.0469,1.0479,1.0498,1.0612,1.0689,1.0704,1.0743,1.0735,1.0762,1.0807,1.0821,1.0974,1.095,1.097,1.1001,1.1153,1.1157,1.1161,1.1146,1.115,1.1154,0,0,0,0,0,0,1.0397,1.048,1.0491,1.0566,1.062,1.0694,1.0729,1.0746,1.0804,1.0803,1.0851,1.0868,1.0941,1.0979,1.0951,1.1074,1.1064,1.1072,1.1046,1.105,1.1053,1.1043,1.0963,0,0,0,0,0,1.04,1.0454,1.0524,1.0584,1.061,1.0665,1.07,1.0726,1.0784,1.0807,1.0858,1.0915,1.0977,1.1016,1.1076,1.1153,1.1172,1.1185,1.1188,1.119,1.1196,1.1242,1.1248,1.1175,1.1175,1.1175,0,0,1.0408,1.046,1.0491,1.058,1.0625,1.0682,1.0684,1.0743,1.0786,1.0817,1.0891,1.0931,1.0998,1.1076,1.1113,1.111,1.1221,1.1195,1.1196,1.1201,1.1246,1.1253,1.1259,1.1177,1.1177,1.1176,0,0,1.0451,1.0495,1.055,1.0595,1.0662,1.0699,1.0712,1.0784,1.0811,1.0887,1.0911,1.0964,1.1068,1.1115,1.1153,1.1216,1.1232,1.1234,1.125,1.1294,1.13,1.1305,1.1328,1.1335,1.124,1.124,1.124,0,1.0452,1.0536,1.0576,1.0635,1.0674,1.0703,1.076,1.0802,1.0886,1.0914,1.0909,1.1041,1.1088,1.1177,1.1193,1.1222,1.124,1.1225,1.1295,1.1301,1.1307,1.1329,1.1337,1.124,1.124,1.124,1.124,0,1.0535,1.0594,1.063,1.0709,1.0753,1.081,1.086,1.09,1.0922,1.096,1.1038,1.1096,1.1168,1.1192,1.1215,1.1285,1.1281,1.1285,1.1277,1.1313,1.1335,1.1344,1.124,1.124,1.124,1.124,0,0,1.0566,1.0667,1.068,1.0717,1.0794,1.0841,1.0901,1.097,1.1004,1.1062,1.1114,1.1202,1.1206,1.1249,1.1278,1.1316,1.1363,1.1316,1.1318,1.1323,1.1445,1.1441,1.145,1.1374,1.1376,1.1377,1.1439,0,1.0618,1.0724,1.0762,1.085,1.0905,1.0935,1.0987,1.1041,1.1079,1.1132,1.1175,1.1236,1.1237,1.1263,1.1302,1.1348,1.1388,1.1345,1.1424,1.1427,1.1406,1.1462,1.1458,1.1513,1.1448,1.145,1.1451,0,1.0693,1.075,1.0843,1.0914,1.0939,1.0985,1.1053,1.1104,1.1167,1.1192,1.124,1.1266,1.1332,1.1319,1.1411,1.1381,1.1416,1.1444,1.1447,1.1456,1.144,1.1472,1.1532,1.154,1.1465,1.1464,1.1463,0,1.0706,1.0807,1.0875,1.0906,1.0991,1.1023,1.1061,1.1122,1.1162,1.1223,1.1249,1.1317,1.1354,1.1406,1.1451,1.1438,1.1539,1.153,1.1563,1.1562,1.1582,1.158,1.1648,1.1605,1.1605,1.1605,1.1605,0,1.076,1.0815,1.0882,1.0924,1.0988,1.1033,1.1096,1.1136,1.119,1.1242,1.1273,1.1321,1.1378,1.1434,1.147,1.1541,1.1557,1.158,1.1589,1.1577,1.1574,1.16,1.1598,1.1607,1.1607,1.1606,1.1606,0,1.0784,1.0831,1.0908,1.0983,1.1003,1.1047,1.1112,1.1155,1.1194,1.126,1.1278,1.134,1.1407,1.1457,1.1546,1.157,1.1646,1.1655,1.1624,1.1628,1.1658,1.1654,1.1745,1.1759,1.1706,1.1707,1.1707,0,1.0815,1.0859,1.0938,1.0974,1.1011,1.1069,1.111,1.1157,1.1199,1.1275,1.1309,1.1379,1.1437,1.1545,1.1599,1.1667,1.1678,1.1705,1.1688,1.1675,1.1678,1.1675,1.168,1.1707,1.1707,1.1708,1.1708,0,1.0866,1.0887,1.0944,1.101,1.1057,1.1112,1.1167,1.1195,1.1253,1.1298,1.1367,1.1412,1.1502,1.1572,1.1645,1.1686,1.1707,1.1713,1.1724,1.1712,1.1692,1.1703,1.163,1.171,1.171,1.171,1.171,1.171,1.0894,1.0935,1.0997,1.106,1.1106,1.1157,1.1202,1.1246,1.1304,1.138,1.1405,1.1477,1.1541,1.1642,1.1684,1.1742,1.1741,1.1757,1.1761,1.1764,1.1763,1.1683,1.1755,1.1755,1.1755,1.1755,1.1755,0,1.0946,1.0988,1.1045,1.1121,1.1171,1.1186,1.1248,1.1289,1.1352,1.1409,1.1466,1.1546,1.1614,1.1674,1.1745,1.178,1.1791,1.1797,1.1794,1.1804,1.176,1.1743,1.1786,1.1786,1.1786,1.1786,1.1786,1.1786,1.0979,1.1048,1.1077,1.117,1.1212,1.1282,1.1316,1.1364,1.141,1.1498,1.1554,1.1592,1.1651,1.1727,1.1791,1.1807,1.1831,1.1834,1.1853,1.1811,1.1807,1.1803,1.1788,1.184,1.184,1.1892,1.1893,1.1893]},{"header":{"parameterUnit":"m.s-1","parameterCategory":1,"la1":30.2991,"la2":30.254,"lo1":-89.0895,"lo2":-89.0444,"dy":0.0017,"dx":0.0017,"nx":28,"ny":28,"refTime":"2025-06-05T21:00:00:Z","depth":0,"parameterNumber":3,"parameterNumberName":"V-component_of_WINDS"},"data":[0,0,0,0,0,0,0,0,0,0,0,0,0,0,0,0,0,0,0,0,0,0,0,0,0,0,0,0,0,0,0,0,0,0,0,0,0,0,0,0,0,0,0,0,0,0,0,0,0,0,0,0,0,0,0,0,0,0,4.7273,4.7274,0,4.7396,4.7398,4.7399,4.7408,4.7407,4.7405,4.7404,4.7519,4.7523,4.7528,0,0,0,0,0,0,0,0,0,0,0,0,0,4.7036,4.704,4.7273,4.7274,4.7276,4.7396,4.7398,4.7399,4.7408,4.7407,4.7405,4.7404,4.7518,4.7523,4.7528,0,0,0,0,0,0,0,0,0,0,0,0,0,4.7147,4.7042,4.7273,4.7295,4.7299,4.7396,4.7398,4.74,4.7409,4.7407,4.7405,4.7403,4.7516,4.7522,4.7529,4.7608,0,0,4.7548,4.7551,0,0,0,0,0,0,0,0,4.7141,4.7155,4.729,4.7294,4.7298,4.7385,4.7356,4.7469,4.7409,4.7366,4.7404,4.7402,4.7475,4.7485,4.7512,4.7614,4.7619,4.7549,4.7553,4.7556,4.7557,0,0,0,0,0,0,0,4.7133,4.715,4.7321,4.7292,4.7297,4.7296,4.731,4.7378,4.743,4.737,4.7371,4.7386,4.7477,4.7506,4.7515,4.762,4.7549,4.7554,4.7558,4.7561,4.7796,4.7798,0,0,0,0,0,0,4.7122,4.7144,4.7317,4.7325,4.7213,4.7302,4.7317,4.7359,4.743,4.7439,4.7388,4.7386,4.7496,4.7507,4.7519,4.7619,4.7556,4.7562,4.7565,4.7794,4.7797,4.7799,0,0,0,0,0,0,4.7117,4.7138,4.7312,4.7235,4.7257,4.7308,4.7355,4.7362,4.7392,4.7443,4.7451,4.7409,4.7495,4.751,4.7588,4.7623,4.7565,4.757,4.7791,4.7795,4.7798,4.7819,0,0,0,0,0,0,4.711,4.7136,4.7169,4.7236,4.7261,4.7382,4.7357,4.7366,4.7404,4.7403,4.7465,4.7473,4.7494,4.7578,4.7594,4.7631,4.7575,4.7788,4.7793,4.7797,4.7815,4.7823,4.7829,0,0,0,0,0,4.7102,4.7166,4.717,4.7191,4.7304,4.7384,4.7398,4.7425,4.7407,4.7439,4.7473,4.7471,4.7617,4.7586,4.7604,4.7643,4.7786,4.7791,4.7796,4.7812,4.7821,4.7829,0,0,0,0,0,0,4.7097,4.7175,4.718,4.7269,4.7321,4.7385,4.7426,4.7433,4.7487,4.7483,4.7511,4.7524,4.7602,4.763,4.7594,4.7726,4.7699,4.7708,4.7705,4.7714,4.7721,4.7712,4.7581,0,0,0,0,0,4.7107,4.7169,4.7232,4.7304,4.733,4.7374,4.741,4.7427,4.7479,4.7499,4.7538,4.7586,4.7643,4.768,4.7735,4.7819,4.7833,4.7856,4.7862,4.7868,4.7876,4.7925,4.7936,4.7817,4.7817,4.7817,0,0,4.7126,4.7177,4.7213,4.7305,4.7346,4.7408,4.7392,4.7456,4.7501,4.7508,4.7586,4.7616,4.7671,4.7754,4.7791,4.7779,4.7912,4.7875,4.7879,4.7884,4.7931,4.7942,4.7952,4.782,4.782,4.7819,0,0,4.7194,4.7238,4.7305,4.7349,4.7414,4.7443,4.7459,4.7525,4.7547,4.7626,4.7633,4.7685,4.7782,4.7822,4.7855,4.7942,4.7943,4.7959,4.7995,4.8043,4.8052,4.8061,4.8093,4.8104,4.7966,4.7966,4.7966,0,4.7209,4.7305,4.7337,4.7404,4.7444,4.7458,4.7525,4.7564,4.7641,4.7668,4.7654,4.7779,4.7816,4.791,4.7932,4.7957,4.7976,4.7952,4.8049,4.8058,4.8066,4.8097,4.8109,4.7968,4.7968,4.7968,4.7968,0,4.7321,4.7388,4.7433,4.7515,4.7559,4.7625,4.7665,4.7706,4.772,4.775,4.7831,4.7877,4.7944,4.7967,4.7978,4.8062,4.8053,4.8044,4.8018,4.8079,4.8109,4.8121,4.797,4.797,4.7969,4.7969,0,0,4.7387,4.7489,4.7505,4.7544,4.7618,4.7669,4.7735,4.7805,4.784,4.7893,4.7949,4.8033,4.8027,4.8064,4.808,4.8122,4.819,4.8107,4.8109,4.8122,4.8288,4.8295,4.8309,4.8191,4.8194,4.8196,4.8283,0,4.7464,4.7588,4.7621,4.7724,4.7787,4.7802,4.786,4.7911,4.7941,4.7996,4.8028,4.8088,4.8074,4.8097,4.8139,4.8173,4.8224,4.8167,4.8242,4.8245,4.823,4.8324,4.8331,4.8412,4.8295,4.8297,4.8299,0,4.7571,4.7633,4.7745,4.7815,4.7842,4.7894,4.7962,4.8015,4.8073,4.8092,4.8137,4.815,4.8218,4.8188,4.8282,4.8243,4.8276,4.8297,4.8301,4.8309,4.8276,4.8336,4.8438,4.8451,4.8317,4.8315,4.8314,0,4.761,4.7721,4.7803,4.7835,4.7919,4.7955,4.7991,4.8047,4.8088,4.8146,4.8172,4.8235,4.827,4.8317,4.8347,4.8323,4.8439,4.8411,4.8456,4.8455,4.8479,4.8478,4.859,4.8499,4.8499,4.8498,4.8498,0,4.7693,4.7761,4.7823,4.7873,4.795,4.7986,4.806,4.8095,4.8146,4.8202,4.8217,4.8268,4.8304,4.8359,4.8382,4.8457,4.8472,4.8488,4.8494,4.8488,4.8486,4.851,4.8505,4.8502,4.8501,4.85,4.85,0,4.775,4.7794,4.7885,4.7959,4.7979,4.8032,4.8094,4.8142,4.8175,4.8246,4.8264,4.8313,4.838,4.8415,4.8496,4.8512,4.8597,4.8598,4.8579,4.8582,4.8625,4.8621,4.8757,4.8777,4.8671,4.8672,4.8673,0,4.7801,4.7855,4.7936,4.7978,4.8016,4.8081,4.8124,4.8161,4.8205,4.8277,4.8317,4.8386,4.8443,4.8549,4.859,4.8653,4.8657,4.87,4.8666,4.866,4.8659,4.8657,4.8663,4.8706,4.8707,4.8708,4.8709,0,4.7887,4.7908,4.7972,4.8046,4.8098,4.8156,4.8213,4.8245,4.8291,4.8339,4.8411,4.8456,4.8543,4.8611,4.8678,4.8711,4.8717,4.872,4.8733,4.8728,4.8716,4.8725,4.8597,4.8716,4.8715,4.8715,4.8714,4.8714,4.7943,4.7993,4.806,4.8132,4.818,4.8234,4.8285,4.8326,4.8388,4.8465,4.8482,4.8558,4.8615,4.8707,4.8743,4.8801,4.8791,4.8811,4.8816,4.8821,4.8824,4.8707,4.8813,4.8812,4.8812,4.8812,4.8812,0,4.8032,4.8077,4.8143,4.8226,4.8283,4.8289,4.8353,4.8399,4.8467,4.8522,4.8581,4.8663,4.8731,4.8779,4.8846,4.8884,4.8889,4.89,4.8898,4.8906,4.8827,4.881,4.8896,4.8896,4.8896,4.8896,4.8896,4.8896,4.8085,4.8171,4.82,4.831,4.8353,4.8432,4.8468,4.8517,4.8563,4.8657,4.8715,4.8747,4.88,4.8872,4.8933,4.8946,4.897,4.8982,4.8994,4.892,4.8911,4.8903,4.8886,4.8987,4.8987,4.9068,4.9069,4.907]}]]